Tracking 31027 objects as of 19-Jul-2025
HD Live streaming from Space Station
objects crossing your sky now

STARLINK-3795

Track STARLINK-3795 now!
10-day predictions
STARLINK-3795 is classified as:


NORAD ID: 52264
Int'l Code: 2022-041D
Perigee: 545.8 km
Apogee: 548.0 km
Inclination: 53.2 °
Period: 95.4 minutes
Semi major axis: 6917 km
RCS: Unknown
Launch date: April 21, 2022
Source: United States (US)
Launch site: AIR FORCE EASTERN TEST RANGE (AFETR)
Your satellite tracking list
FENGYUN 1C DEB
Track 1 satellite(s)




NASA's NSSDC Master Catalog

Two Line Element Set (TLE):
1 52264U 22041D   25199.08590932  .00000464  00000-0  47241-4 0  9996
2 52264  53.2178  82.2979 0001609  88.0481 272.0695 15.08843819178946
Source of the keplerian elements: AFSPC